Regional Weather Roundup
Issued by NWS

Home | Current Version | Previous Version | Text Only | Print | Product List | Glossary Off
Versions: 1 2 3 4 5 6 7 8 9 10 11 12 13 14 15 16 17 18 19 20 21 22 23 24 25 26 27 28 29 30 31 32 33 34 35 36 37 38 39 40 41 42 43 44 45 46 47 48 49 50

000
ASUS43 KIND 222000
RWRIN

WEATHER ROUNDUP FOR INDIANA
NATIONAL WEATHER SERVICE INDIANAPOLIS IN
400 PM EDT TUE MAY 22 2018

NOTE: "FAIR" INDICATES FEW OR NO CLOUDS BELOW 12,000 FEET WITH NO
SIGNIFICANT WEATHER AND/OR OBSTRUCTIONS TO VISIBILITY.

* - STATION DOES NOT REPORT WEATHER SUCH AS PRECIPITATION OR FOG.

+ - STATION NOT QUALITY CONTROLLED BY THE NATIONAL WEATHER SERVICE.
    USE DATA WITH CAUTION...ESPECIALLY DEWPOINT AND RELATIVE
    HUMIDITY OBSERVATIONS.

INZ001>003-010>013-019-020-222100-
NORTHWEST INDIANA

CITY           SKY/WX    TMP DP  RH WIND       PRES   REMARKS
GARY /AIRPORT/ CLOUDY    55  54  94 VRB6      30.09F FOG
KNOX *+        CLOUDY    66  59  77 N13       30.05S
LA PORTE +     CLOUDY    60  55  84 N7        30.07F
MICHIGAN CITY+ CLOUDY    55  54  94 N5        30.08F
MONTICELLO +   PTSUNNY  N/A N/A N/A NW13G18   30.00F
RENSSELAER +   PTSUNNY   75  50  41 NW8       30.03S

$$

LMZ046-743>745-222100-
SOUTHERN LAKE MICHIGAN

STATION/POSITION TIME  TEMP    WIND        PRES    WAVE
                       AIR SEA DIR/SP/G            HT
                 (UTC) (F)     (DEG/KT/KT) (MB)    (FT)
BURNS HARBOR     1940   51        CALM     1019.0F
MICHIGAN CITY    1930   48      40/  2/  2   N/A
5NW MICH CITY    1950   47 54   40/  2/  4   N/A     1

$$

INZ004-005-014>016-021>024-222100-
NORTH CENTRAL INDIANA

CITY           SKY/WX    TMP DP  RH WIND       PRES   REMARKS
ELKHART        CLOUDY    66  57  72 NW12      30.04S
GOSHEN         CLOUDY    69  62  78 W13       30.02S
ROCHESTER +    FAIR      75  61  60 NW9G20    30.03S
SOUTH BEND     CLOUDY    59  54  83 NW10      30.07S
WARSAW +       CLOUDY    70  61  73 NW16      30.03R

$$

INZ006>009-017-018-025>027-222100-
NORTHEAST INDIANA

CITY           SKY/WX    TMP DP  RH WIND       PRES   REMARKS
ANGOLA *+      CLOUDY    70  59  68 NW14G21   30.00S
AUBURN +       FAIR      75  63  64 W9G18     30.00S
FORT WAYNE     FAIR      78  62  57 W16G22    29.99F

$$

INZ028-029-035-036-043>045-051>053-222100-
WEST CENTRAL INDIANA

CITY           SKY/WX    TMP DP  RH WIND       PRES   REMARKS
CRAWFORDSVL +  PTSUNNY   77  60  55 NW12      30.01S
GREENCASTLE +  FAIR      81  61  50 W5        30.01S
LAFAYETTE      PTSUNNY   81  60  48 W15       29.99F
TERRE HAUTE    PTSUNNY   82  63  52 NW10G17   30.00F

$$

INZ030>032-037>040-046>048-054>057-064-065-222100-
CENTRAL INDIANA

CITY           SKY/WX    TMP DP  RH WIND       PRES   REMARKS
ANDERSON       MOSUNNY   81  63  54 W12       29.99
FRANKFORT +    PTSUNNY   82  64  55 NW13G18   30.03S
GREENWOOD *+   PTSUNNY   83  66  57 W9        29.99F
INDIANAPOLIS   PTSUNNY   84  64  50 W16       29.98F
-EAGLE CREEK   PTSUNNY   82  63  52 NW13      29.98F
KOKOMO +       FAIR      78  61  55 NW16      30.01F
MT COMFORT *+  FAIR      82  68  61 W12G20    29.99F
SHELBYVILLE    FAIR      83  65  54 W14       29.97F
ZIONSVILLE +   FAIR      79  64  59 NW10G17   30.00F

$$

INZ033-034-041-042-049-050-058-059-222100-
EAST CENTRAL INDIANA

CITY           SKY/WX    TMP DP  RH WIND       PRES   REMARKS
MUNCIE         FAIR      84  63  49 NW18G24   29.97F
RICHMOND +     FAIR      77  70  78 SW16      30.00F

$$

INZ060-061-067>069-081>083-085>088-222100-
SOUTHWEST INDIANA

CITY           SKY/WX    TMP DP  RH WIND       PRES   REMARKS
EVANSVILLE     FAIR      87  68  52 NW8       29.99F HX  90
HUNTINGBURG +  PTSUNNY   82  72  71 SW10      29.99F

$$

INZ062-063-066-070>080-084-089>092-222100-
SOUTH CENTRAL AND SOUTHEAST INDIANA

CITY           SKY/WX    TMP DP  RH WIND       PRES   REMARKS
BLOOMINGTON    PTSUNNY   84  67  56 W8        29.99F
FRENCH LICK *+ FAIR      81  59  47 S5        30.00F
SEYMOUR +      FAIR      86  66  51 SW9G16    29.98F

$$




USA.gov is the U.S. government's official web portal to all federal, state and local government web resources and services.